Other Public Products
Issued by NWS Grand Forks, ND

Home | Current Version | Previous Version | Graphics & Text | Print | Product List | Glossary On
Versions: 1 2 3 4 5 6 7 8 9 10 11 12 13 14 15 16 17 18 19 20 21 22 23 24 25 26 27 28 29 30 31 32 33 34 35 36 37 38 39 40 41 42 43 44 45 46 47 48 49 50
740
FPUS83 KFGF 262110
OPUFGF
PRAIRIE TO PINES WEATHER ROUNDUP
NATIONAL WEATHER SERVICE EASTERN NORTH DAKOTA/GRAND FORKS ND
400 PM CDT WED APR 26 2017

 **SATELLITE DATA USED TO AUGMENT SKY COVER AT AUTOMATED STATIONS**
 *****  WEATHER ACROSS EASTERN NORTH DAKOTA  *****

CITY           SKY/WX    TMP DP  RH WIND       PRES   REMARKS
GRAND FORKS    SNOW      31  29  92 N16       29.79R VSB 1/2 WCI  20
GRAND FORKS AF LGT SNOW  30  27  87 NE16      29.79S FOG     WCI  19
GRAND CITY NWS NOT AVBL
BUXTON         NOT AVBL
DEVILS LAKE    CLOUDY    35  27  72 NE17G26   29.79F WCI  25
FARGO          LGT SNOW  29  28  96 N17       29.74S VSB 3/4 WCI  17
WAHPETON ARPT  CLOUDY    30  27  86 N21       29.71F WCI  17
$$

 *****  WEATHER ACROSS CENTRAL AND WESTERN NORTH DAKOTA  *****

CITY           SKY/WX    TMP DP  RH WIND       PRES   REMARKS
JAMESTOWN      CLOUDY    31  25  78 N16       29.76S WCI  20
BISMARCK       PTSUNNY   46  27  47 N15G22    29.77F
MINOT          FAIR      49  22  34 NE16G25   29.79F
MINOT AFB      FAIR      48  22  36 NE16      29.79F
GARRISON         N/A     46  23  40 NE12G22   29.77F
WILLISTON      FAIR      50  23  34 SE7       29.81F
DICKINSON      FAIR      45  21  38 N6        29.75F
HETTINGER      FAIR      47  25  42 N9G20     29.76F
$$

 *****  OTHER OBSERVATIONS NORTHEAST NORTH DAKOTA  *****

CITY           SKY/WX    TMP DP  RH WIND       PRES   REMARKS
WALHALLA       NOT AVBL
LANGDON        CLOUDY    41  27  56 NE28      29.78F
CAVALIER       MOCLDY    37  27  65 NE15G25   29.80F
GRAFTON        LGT SNOW  32  28  86 N15G21    29.82S WCI  22
CANDO          NOT AVBL
FORT TOTTEN      N/A     35  27  73 NE7       29.95S
ROLLA          FAIR      41  28  60 NE23      29.80R
RUGBY          NOT AVBL
 ***** THE ABOVE OBSERVATIONS ARE NON NWS ARE NOT QUALITY
        CONTROLLED AND MAY MIS-REPORT RAIN FOR SNOW...
$$

 *****  OTHER OBSERVATIONS SOUTHEAST NORTH DAKOTA *****

CITY           SKY/WX    TMP DP  RH WIND       PRES   REMARKS
COOPERSTOWN    LGT SNOW  28  28 100 NE17      29.78R WCI  16
VALLEY CITY    LGT SNOW  28  28 100 N16       29.77S WCI  17
OAKES          NOT AVBL
GWINNER        CLOUDY    30  25  80 MISG      29.74F
SHEYENNE NWR     N/A     29  24  83 N13       29.95S WCI  19
BUFFALO        NOT AVBL
WYNDMERE         N/A     30  28  93 N17         N/A  WCI  18
 ***** THE ABOVE OBSERVATIONS ARE NON NWS ARE NOT QUALITY
       CONTROLLED AND MAY MIS-REPORT RAIN FOR SNOW...
$$

  *****  WEATHER ACROSS NORTHERN MINNESOTA  *****

CITY           SKY/WX    TMP DP  RH WIND       PRES   REMARKS
FLAG ISLAND    CLOUDY    30  21  69 NE23G31   29.78S WCI  17
WARROAD        FLURRIES  30  25  80 NE18G25   29.77F WCI  18
ROSEAU         CLOUDY    32  25  74 NE20      29.77F WCI  20
HALLOCK        CLOUDY    36  25  64 NE14G22   29.79F
THF RVR FALLS  FLURRIES  29  23  78 NE21G26   29.75R WCI  16
HALSTAD          N/A     29  27  91 N17         N/A  WCI  17
FOSSTON        LGT SNOW  27  25  93 N14       29.71S WCI  15
BAUDETTE       LGT SNOW  29  23  78 NE18G25   29.74R WCI  16
WASKISH        CLOUDY    28  25  86 NE14G21   29.71R FOG     WCI  17
CROOKSTON      FLURRIES  30  27  86 N10       29.77S WCI  21
$$
  *****  WEATHER ACROSS CENTRAL AND WEST MINNESOTA  *****

CITY           SKY/WX    TMP DP  RH WIND       PRES   REMARKS
BEMIDJI        LGT SNOW  28  25  89 NE8       29.67R WCI  19
PARK RAPIDS    MIX PCPN  30  23  75 N12       29.64S WCI  20
WADENA         LGT SNOW  28  27  93 N5        29.65R WCI  23
DETROIT LAKES  LGT SNOW  30  28  93 N7        29.67F WCI  23
MOORHEAD       RAIN      28  27  93 N7        29.73F WCI  21
FERGUS FALLS   CLOUDY    28  28 100 N10G17    29.68F FOG     WCI  19
ELBOW LAKE     CLOUDY    32  27  82 NE10      29.66F WCI  24
MORRIS MN      CLOUDY    34  28  80 NW20      29.64F WCI  22
STAPLES        CLOUDY    28  27  93 N7        29.64R WCI  21
WHEATON        CLOUDY    30  27  86 NW15G23   29.72S WCI  19
$$
  *****  WEATHER ELSEWHERE ACROSS MINNESOTA  *****

CITY           SKY/WX    TMP DP  RH WIND       PRES   REMARKS
DULUTH         FOG       34  31  88 N14       29.54F VSB 3/4 WCI  25
INTRNTL FALLS  SNOW      27  22  81 NE10G21   29.71R VSB 1/2 WCI  17
ELY            LGT SNOW  27  21  80 NE13      29.62S WCI  16
CLOQUET        LGT SNOW  34  30  86 N8        29.56S
BRAINERD       CLOUDY    31  27  85 N10       29.63S WCI  22
HIBBING        CLOUDY    28  24  85 N13       29.61S WCI  17
ALEXANDRIA     CLOUDY    32  28  85 N10       29.64F WCI  24
SAINT CLOUD    CLOUDY    35  31  85 N13       29.59F
MINNEAPOLIS    CLOUDY    40  32  73 NW14      29.55S
$$

  *****  WEATHER ACROSS SOUTH DAKOTA  *****

CITY           SKY/WX    TMP DP  RH WIND       PRES   REMARKS
SIOUX FALLS    CLOUDY    38  30  73 NW17      29.67F
BROOKINGS      CLOUDY    32  26  78 N17G26    29.66F WCI  21
WATERTOWN      CLOUDY    29  25  85 N22       29.67F WCI  15
HURON          CLOUDY    35  26  69 N18       29.74S WCI  24
SISSETON         N/A     30  28  92 N21       29.71S WCI  17
ABERDEEN       FLURRIES  31  26  82 N20       29.75F WCI  19
MITCHELL       CLOUDY    38  28  67 NW22      29.73F
PIERRE         FAIR      47  28  47 N17       29.73S
MOBRIDGE       CLOUDY    45  26  47 N12       29.73F
RAPID CITY     CLOUDY    37  27  67 N10       29.78S
$$

  *****  SOME WEATHER IN NEARBY STATES *****

CITY           SKY/WX    TMP DP  RH WIND       PRES   REMARKS
GLASGOW MT     FAIR      47  25  42 S10       29.76F
GREAT FALLS MT PTSUNNY   52  36  54 E5        29.61F
CHEYENNE WY    PTSUNNY   52  19  27 NW18G24   29.70F
SCOTTSBLUFF NE FAIR      58  30  34 NW10      29.68F
OMAHA NE       CLOUDY    43  33  68 N20G28    29.67R
DES MOINES IA  CLOUDY    48  38  68 NW16      29.58F
DAVENPORT IA   CLOUDY    51  46  83 W12       29.54F
CHICAGO IL     CLOUDY    72  55  55 SW9G21    29.47F
EAU CLAIRE WI  CLOUDY    41  37  86 NW10      29.48R
LA CROSSE WI   CLOUDY    48  42  80 W13       29.47F
$$

  *****  SOME NATIONAL WEATHER *****

CITY           SKY/WX    TMP DP  RH WIND       PRES   REMARKS
LA GUARDIA NY  CLOUDY    59  56  89 NE7       29.76S FOG
RALEIGH NC     FAIR      81  63  54 W6        29.78F
ATLANTA GA     FAIR      80  57  45 S12       29.77F
NEW ORLEANS LA PTSUNNY   80  71  74 S14G24    29.67F
OKLAHOMA CITY  PTSUNNY   55  42  61 N16G23    29.68F
ALBUQUERQUE NM FAIR      64  19  17 SW16G23   29.86F
SALT LAKE CITY PTSUNNY   58  34  40 SW5       29.79F
LOS ANGELES CA PTSUNNY   68  53  58 W15       29.87F
BOISE ID       LGT RAIN  47  43  86 W10       29.80R
SEATTLE WA     FAIR      57  42  57 SW18G24   29.84R
$$

*** WEATHER ACROSS MANITOBA...SASKATCHEWAN AND ONTARIO ***
                ***ONTARIO***

CITY           SKY/WX    TMP DP  RH WIND       PRES   REMARKS
GERALDTON      SLEET     16  12  86 NE20G28   29.76F VSB 3/4 WCI  -1
THUNDER BAY    FRZ RAIN  25  19  80 N13G18    29.63S WCI  13
SIOUX LOOKOUT  LGT SNOW  23  18  80 VRB8G21   29.83F BLWGSNOWWCI  14
TORONTO        MOSUNNY   61  54  77 SE8       29.70F
BIG TROUT LK   SUNNY     30   5  34 E10       30.16F WCI  21
PICKLE LAKE    CLOUDY    23   1  39 NE21G33   29.97F WCI   8
DRYDEN         LGT SNOW  25  21  86 NE20G33   29.78F WCI  11
KENORA         CLOUDY    30  19  64 NE18G32   29.79F WCI  18
$$
                *** MANITOBA***

CITY           SKY/WX    TMP DP  RH WIND       PRES   REMARKS
BRANDON        PTSUNNY   45  27  49 NE18G32   29.86F
DAUPHIN        SUNNY     45  18  33 E13G21    29.95F
ISLAND LAKE    MOSUNNY   37   5  25 SE10      30.10F
PILOT MOUND      N/A     41  25  52 NE22G32     N/A
THE PAS        MOSUNNY   39  10  30 SE9G18    30.05F
THOMPSON       SUNNY     36  -2  20 VRB6      30.12F
WINNIPEG       CLOUDY    41  25  52 NE20G29   29.84F
LYNN LAKE      SUNNY     36   3  25 S10       30.06F
CHURCHILL      SUNNY     32  16  51 SW16      30.15F WCI  21
GILLAM         SUNNY     36   9  32 N6        30.19F
$$
                ***SASKATCHEWAN***

CITY           SKY/WX    TMP DP  RH WIND       PRES   REMARKS
ESTEVAN        MOSUNNY   46  18  31 NE10G17   29.84F
KINDERSLEY     LGT RAIN  37  36  93 SE16G24   29.74F
LLOYDMINSTER   FLURRIES  32  32 100 SE14      29.80S WCI  22
PRINCE ALBERT  CLOUDY    41  16  36 SE12G18   29.94F
REGINA         MOSUNNY   45  19  36 E12G18    29.86F
YORKTON        SUNNY     45  14  29 E9        29.90F



USA.gov is the U.S. government's official web portal to all federal, state and local government web resources and services.